This is the latest recevied weather packets stored in our database for station/object WI5ARD. If no packets are shown the sender has not sent any weather packets the latest 10 day(s).
| Time | Temp. | Humidity | Pressure | Rain* | Wind** | Luminosity | Snow |
|---|---|---|---|---|---|---|---|
| 1777662329 | 16.67° C | 92% | 1012.2 hPa | 0 mm | - | 65 W/m² | - |
| 1777661419 | 16.67° C | 93% | 1012.9 hPa | 0 mm | - | 77 W/m² | - |
| 1777661136 | 16.67° C | 93% | 1012.6 hPa | 0 mm | - | 160 W/m² | - |
| 1777659020 | 16.67° C | 94% | 1013.7 hPa | 0 mm | - | 107 W/m² | - |
| 1777657538 | 16.67° C | 95% | 1014 hPa | 0 mm | - | 246 W/m² | - |
| 1777654223 | 16.67° C | 95% | 1015.2 hPa | 0 mm | - | 76 W/m² | - |
| 1777653942 | 16.67° C | 95% | 1015.2 hPa | 0 mm | - | 90 W/m² | - |
| 1777652721 | 16.67° C | 96% | 1015.6 hPa | 0 mm | - | 42 W/m² | - |
| 1777652425 | 16.67° C | 96% | 1015.7 hPa | 0 mm | - | 54 W/m² | - |
| 1777648538 | 16.67° C | 96% | 1015.4 hPa | 0 mm | - | 128 W/m² | - |
| 1777647921 | 16.67° C | 96% | 1015.7 hPa | 0 mm | - | 63 W/m² | - |
| 1777647647 | 16.67° C | 96% | 1015.9 hPa | 0 mm | - | 65 W/m² | - |
| 1777646119 | 17.22° C | 96% | 1015 hPa | 0 mm | - | 65 W/m² | - |
| 1777645519 | 17.22° C | 96% | 1013.9 hPa | 0 mm | - | 77 W/m² | - |
| 1777645220 | 17.22° C | 96% | 1014.2 hPa | 0 mm | - | 86 W/m² | - |
| 1777644620 | 17.22° C | 97% | 1014 hPa | 0 mm | - | 77 W/m² | - |
| 1777644320 | 17.22° C | 96% | 1014.4 hPa | 0 mm | - | 63 W/m² | - |
| 1777644049 | 17.22° C | 96% | 1014.6 hPa | 0 mm | - | 58 W/m² | - |
| 1777643421 | 17.22° C | 96% | 1014.9 hPa | 0 mm | - | 56 W/m² | - |
| 1777642820 | 17.22° C | 96% | 1015 hPa | 0 mm | - | 70 W/m² | - |
| 1777642239 | 16.67° C | 96% | 1015.1 hPa | 0 mm | - | 69 W/m² | - |
| 1777641920 | 16.67° C | 96% | 1014.7 hPa | 0 mm | - | 74 W/m² | - |
| 1777640720 | 16.67° C | 96% | 1014.2 hPa | 0 mm | - | 37 W/m² | - |
| 1777640433 | 16.67° C | 96% | 1013.6 hPa | 0 mm | - | 60 W/m² | - |
| 1777639222 | 16.67° C | 96% | 1014.2 hPa | 0.25 mm | - | 19 W/m² | - |
* Rain latest hour (hover to see other rain measurements)
** Current wind speed in m/s (hover to see current wind gust speed)